Date,TemperatureHighF,TemperatureAvgF,TemperatureLowF,DewpointHighF,DewpointAvgF,DewpointLowF,HumidityHigh,HumidityAvg,HumidityLow,PressureMaxIn,PressureMinIn,WindSpeedMaxMPH,WindSpeedAvgMPH,GustSpeedMaxMPH,PrecipitationSumIn
2013-1-1,26,13,2,24,8,-1,94,81,67,29.94,29.70,13,3,18,0.00
2013-1-2,11,3,-9,8,-1,-13,89,84,76,30.25,29.89,8,1,14,0.00
2013-1-3,14,2,-10,12,-3,-14,89,81,60,30.26,29.99,5,0,11,0.00
2013-1-4,26,23,15,24,20,12,94,89,78,29.98,29.80,7,2,18,0.00
2013-1-5,27,21,14,23,16,10,88,80,70,30.22,29.80,12,3,22,0.00
2013-1-6,30,26,19,28,22,15,93,88,78,30.18,29.91,3,1,8,0.00
2013-1-7,25,17,11,23,13,9,94,85,75,30.36,29.96,5,1,13,0.00
2013-1-8,32,26,22,23,20,17,88,78,65,30.38,30.24,7,2,13,0.00
2013-1-9,38,32,23,30,24,20,89,73,55,30.37,29.93,11,3,19,0.03
2013-1-10,34,30,23,29,23,20,88,77,69,30.55,30.02,17,4,22,0.00
2013-1-11,40,32,22,35,22,8,94,71,28,30.54,30.11,10,2,21,0.18
2013-1-12,44,41,37,42,39,35,96,94,89,30.13,30.05,7,2,11,0.00
2013-1-13,54,44,37,45,41,36,97,91,67,30.10,29.88,8,2,11,0.00
2013-1-14,49,39,28,48,33,21,97,82,64,30.25,29.77,8,2,19,0.00
2013-1-15,28,26,24,22,20,18,84,78,71,30.32,30.22,6,1,7,0.00
2013-1-16,28,26,24,26,22,17,91,86,75,30.23,29.78,8,1,11,0.00
2013-1-17,28,17,2,25,11,-5,91,77,56,30.14,29.79,7,1,16,0.00
2013-1-18,15,5,-5,7,-6,-14,73,62,48,30.40,30.11,8,2,13,0.00
2013-1-19,38,27,15,24,17,7,90,67,52,30.30,29.77,10,2,15,0.00
2013-1-20,40,29,10,29,18,-2,91,65,53,29.89,29.42,15,4,35,0.03
2013-1-21,15,9,0,8,1,-3,88,73,52,30.04,29.81,4,1,14,0.00
2013-1-22,12,4,-3,5,-2,-11,88,79,63,30.08,29.80,8,1,13,0.00
2013-1-23,-4,-10,-14,-8,-16,-20,82,74,59,30.21,30.07,11,3,14,0.00
2013-1-24,5,-5,-12,-9,-13,-18,83,69,42,30.39,30.19,14,3,21,0.00
2013-1-25,7,0,-7,0,-7,-12,84,71,51,30.41,30.14,6,1,13,0.00
2013-1-26,8,3,-3,3,-4,-9,87,74,49,30.33,30.12,8,2,18,0.00
2013-1-27,13,6,-1,4,-3,-7,87,68,45,30.54,30.34,7,2,14,0.00
2013-1-28,26,18,6,24,10,-6,92,73,30,30.50,30.01,3,1,9,0.00
2013-1-29,38,30,22,36,27,21,94,90,82,30.17,29.99,8,1,14,0.19
2013-1-30,56,48,37,52,46,36,96,93,80,29.98,29.28,9,3,18,0.22
2013-1-31,52,34,18,51,27,6,96,76,58,29.47,28.79,27,5,26,0.54
2013-2-1,18,12,6,7,5,1,85,74,59,30.10,29.47,14,4,20,0.00
2013-2-2,15,10,2,10,5,-1,89,81,68,30.19,30.06,6,1,12,0.00
2013-2-3,22,14,7,12,8,4,89,80,50,30.06,29.76,4,1,7,0.00
2013-2-4,18,12,3,12,2,-8,91,67,32,29.92,29.74,9,2,20,0.00
2013-2-5,18,9,-2,8,-2,-10,76,63,46,30.04,29.92,4,1,6,0.00
2013-2-6,24,16,5,20,9,-7,89,72,49,30.36,29.92,13,2,18,0.00
2013-2-7,16,6,-3,9,-4,-11,75,64,48,30.58,30.35,4,1,10,0.00
2013-2-8,24,20,15,19,14,3,87,78,51,30.45,29.91,16,2,16,0.00
2013-2-9,15,7,2,12,1,-4,88,76,64,30.38,29.91,11,2,20,0.00
2013-2-10,25,14,2,7,1,-4,80,57,33,30.52,30.31,4,1,8,0.00
2013-2-11,37,34,27,36,22,-2,95,69,22,30.29,29.60,9,2,18,0.09
2013-2-12,32,30,26,28,25,23,89,83,77,29.83,29.58,10,2,17,0.00
2013-2-13,32,27,24,23,21,19,89,77,60,29.84,29.75,5,1,9,0.00
2013-2-14,30,27,25,21,19,18,84,74,63,29.94,29.74,6,1,8,0.00
2013-2-15,37,32,28,29,24,19,91,73,55,29.95,29.85,8,2,16,0.01
2013-2-16,27,20,12,21,12,2,89,71,52,29.97,29.89,6,1,11,0.00
2013-2-17,12,7,4,3,0,-2,84,76,64,29.88,29.68,13,4,21,0.00
2013-2-18,19,9,1,-1,-5,-8,82,57,31,30.20,29.87,12,4,20,0.00
2013-2-19,46,30,12,31,16,-3,94,58,36,30.18,29.60,12,1,13,0.00
2013-2-20,30,22,17,29,18,13,94,85,70,29.75,29.58,4,0,5,0.00
2013-2-21,18,11,4,16,7,0,91,83,74,30.42,29.76,0,0,0,0.00
2013-2-22,33,24,15,22,19,13,92,80,61,30.46,30.25,4,0,7,0.00
2013-2-23,34,31,28,30,26,19,91,82,67,30.24,29.88,8,1,10,0.00
2013-2-24,32,30,26,30,28,24,94,91,86,29.94,29.76,5,0,7,0.00
2013-2-25,31,28,26,29,26,24,94,93,89,30.24,29.95,0,0,0,0.00
2013-2-26,37,31,27,30,27,24,95,84,69,30.32,30.08,5,1,10,0.09
2013-2-27,34,32,30,31,28,24,93,86,74,30.08,29.57,12,2,27,0.00
2013-2-28,40,33,28,32,29,27,95,88,70,29.61,29.55,4,0,8,0.14
2013-3-1,29,27,25,28,25,23,95,92,83,29.75,29.59,10,3,12,0.00
2013-3-2,25,23,18,24,21,15,94,91,86,29.77,29.73,7,2,12,0.00
2013-3-3,25,21,17,21,18,15,93,90,84,29.74,29.70,4,1,9,0.00
2013-3-4,23,19,18,19,17,16,93,90,83,29.91,29.71,5,1,12,0.00
2013-3-5,32,24,19,27,22,17,94,89,81,30.12,29.92,4,1,8,0.00
2013-3-6,37,31,28,29,26,23,93,80,66,30.18,30.10,6,1,10,0.00
2013-3-7,32,27,24,23,21,19,88,78,69,30.19,30.14,5,1,9,0.01
2013-3-8,35,26,23,25,22,20,90,83,66,30.33,30.14,8,2,15,0.00
2013-3-9,45,32,22,27,22,18,89,68,47,30.37,30.30,4,1,8,0.08
2013-3-10,52,42,31,25,20,14,67,43,23,30.33,30.14,8,2,13,0.01
2013-3-11,49,45,40,29,24,20,61,44,34,30.18,29.95,9,3,17,0.00
2013-3-12,48,44,32,46,40,29,95,87,54,29.96,29.65,12,2,15,0.70
2013-3-13,37,31,26,31,28,23,96,89,70,29.79,29.72,3,0,9,0.00
2013-3-14,27,18,10,23,13,3,91,81,67,29.90,29.72,11,3,20,0.00
2013-3-15,29,17,6,23,10,3,93,74,44,29.91,29.62,9,2,13,0.00
2013-3-16,22,17,11,19,12,7,92,80,62,29.92,29.76,6,1,15,0.00
2013-3-17,19,13,7,10,4,-1,89,71,48,30.36,29.92,11,2,18,0.00
2013-3-18,31,19,6,19,2,-2,76,51,32,30.47,30.14,5,1,7,0.00
2013-3-19,29,26,23,24,21,19,91,82,73,30.13,29.71,8,2,15,0.00
2013-3-20,27,23,19,24,19,14,93,85,73,29.73,29.66,2,0,8,0.00
2013-3-21,31,22,15,16,14,11,88,72,50,29.74,29.64,5,0,10,0.00
2013-3-22,29,21,14,21,16,11,91,81,63,29.77,29.66,7,1,13,0.00
2013-3-23,30,26,21,21,19,16,90,76,59,29.83,29.70,17,4,24,0.00
2013-3-24,32,27,22,23,22,18,91,79,67,29.88,29.81,8,2,14,0.00
2013-3-25,41,32,22,27,23,18,87,72,48,29.82,29.58,4,1,12,0.02
2013-3-26,37,31,25,26,23,20,93,74,55,29.82,29.61,8,2,13,0.00
2013-3-27,41,34,28,29,25,21,90,71,55,29.93,29.79,12,2,15,0.00
2013-3-28,43,35,30,33,31,28,95,85,67,30.07,29.92,5,1,14,0.06
2013-3-29,40,36,33,34,31,28,94,82,66,30.08,30.02,6,1,13,0.04
2013-3-30,44,35,28,29,21,12,88,62,29,30.12,30.05,7,2,14,0.00
2013-3-31,50,40,30,35,22,14,90,51,32,30.09,29.70,6,2,15,0.03
2013-4-1,39,33,23,37,26,10,94,78,44,29.75,29.51,15,2,19,0.07
2013-4-2,26,22,18,15,10,6,72,58,47,29.90,29.74,14,4,22,0.00
2013-4-3,34,26,19,16,10,4,68,50,30,30.21,29.91,20,4,21,0.00
2013-4-4,45,33,21,20,14,9,65,47,33,30.27,29.93,6,2,15,0.00
2013-4-5,41,34,26,28,21,14,85,59,44,29.94,29.77,11,3,19,0.00
2013-4-6,33,25,17,13,7,3,77,47,29,30.31,29.95,13,4,23,0.00
2013-4-7,54,44,33,35,22,7,67,42,28,30.28,29.83,10,3,19,0.00
2013-4-8,50,41,34,36,31,28,84,70,43,30.12,29.88,7,2,15,0.00
2013-4-9,51,45,39,46,40,32,94,82,59,30.00,29.79,11,2,17,0.15
2013-4-10,43,40,37,40,39,35,96,94,85,30.00,29.91,3,0,7,0.30
2013-4-11,37,31,27,35,22,16,94,71,56,30.18,29.91,5,1,11,0.00
2013-4-12,34,30,27,31,25,16,94,81,57,30.17,29.80,9,1,19,0.03
2013-4-13,42,36,32,36,33,30,95,89,76,29.91,29.78,4,1,9,0.23
2013-4-14,39,34,30,34,30,27,94,86,75,30.23,29.88,4,1,9,0.04
2013-4-15,56,42,28,35,30,25,88,65,43,30.36,30.23,5,1,10,0.01
2013-4-16,52,49,45,51,42,33,96,76,57,30.26,29.94,12,3,19,0.07
2013-4-17,50,42,34,40,30,23,85,66,45,30.34,30.07,12,3,19,0.00
2013-4-18,57,48,35,46,33,24,77,57,45,30.34,29.96,9,3,17,0.02
2013-4-19,70,60,43,59,52,41,93,77,57,29.95,29.44,10,3,23,0.46
2013-4-20,45,38,28,40,28,17,93,69,48,30.25,29.60,13,3,25,0.00
2013-4-21,40,30,23,19,14,7,74,53,26,30.70,30.25,9,3,16,0.00
2013-4-22,52,40,29,22,16,12,60,39,24,30.72,30.52,9,2,15,0.00
2013-4-23,50,40,28,37,25,9,85,58,36,30.52,30.13,7,2,11,0.00
2013-4-24,69,53,34,49,39,30,95,64,25,30.13,29.63,8,2,15,0.02
2013-4-25,59,42,36,50,30,23,90,64,39,30.27,29.62,12,3,21,0.05
2013-4-26,50,42,36,33,28,23,77,58,50,30.44,30.26,8,2,13,0.00
2013-4-27,55,45,35,31,28,18,79,54,25,30.44,30.30,7,2,10,0.00
2013-4-28,67,54,42,36,30,25,57,41,27,30.31,30.11,7,2,11,0.00
2013-4-29,61,54,50,43,38,34,74,57,41,30.17,30.11,10,2,14,0.00
2013-4-30,66,56,47,46,42,36,78,60,47,30.26,30.17,6,2,15,0.00
2013-5-1,74,61,48,42,38,28,66,44,25,30.41,30.25,5,2,10,0.00
2013-5-2,75,63,51,45,38,29,55,40,29,30.40,30.27,9,2,15,0.00
2013-5-3,68,56,42,39,34,29,70,46,26,30.43,30.30,10,1,14,0.00
2013-5-4,72,59,47,43,40,31,75,51,22,30.32,30.16,9,2,12,0.00
2013-5-5,73,61,49,39,34,30,53,38,25,30.21,30.09,8,2,11,0.00
2013-5-6,73,61,49,42,32,16,54,35,12,30.17,30.03,7,2,11,0.00
2013-5-7,77,64,50,48,38,20,79,43,12,30.11,30.01,7,2,12,0.00
2013-5-8,73,62,54,57,52,36,93,71,39,30.11,29.98,8,1,9,0.14
2013-5-9,64,58,51,56,53,49,97,86,67,29.97,29.84,3,0,8,0.26
2013-5-10,67,58,51,58,53,49,94,83,63,29.97,29.79,5,1,10,0.00
2013-5-11,64,58,49,58,54,45,95,87,67,29.79,29.59,8,1,13,0.43
2013-5-12,54,47,37,45,38,25,95,74,38,29.75,29.59,8,1,15,0.01
2013-5-13,44,39,34,32,28,24,79,66,52,30.05,29.74,7,2,15,0.00
2013-5-14,51,41,32,32,28,24,88,62,38,30.09,30.00,7,1,14,0.00
2013-5-15,61,46,36,48,35,26,90,68,33,30.04,29.60,6,1,12,0.04
2013-5-16,70,54,45,48,41,33,92,65,27,29.85,29.62,8,2,29,0.00
2013-5-17,60,49,41,41,38,35,94,70,43,30.21,29.86,9,2,12,0.02
2013-5-18,66,55,43,42,36,29,81,53,26,30.30,30.20,5,1,11,0.00
2013-5-19,65,54,49,52,48,38,95,80,55,30.24,30.10,4,1,8,0.59
2013-5-20,63,57,52,60,55,51,96,93,85,30.09,29.96,3,0,9,0.01
2013-5-21,67,61,55,64,59,54,96,91,78,29.97,29.76,7,1,8,0.64
2013-5-22,74,64,55,68,61,54,97,91,74,29.82,29.72,2,0,7,0.20
2013-5-23,70,65,58,66,62,57,96,89,75,29.75,29.66,5,1,10,0.38
2013-5-24,58,45,39,56,44,38,97,95,94,29.98,29.64,8,2,15,1.24
2013-5-25,40,37,33,39,35,32,96,94,93,29.97,29.88,8,3,19,2.28
2013-5-26,41,38,34,39,36,33,96,95,88,30.10,29.84,9,3,21,0.87
2013-5-27,60,47,35,41,36,33,97,70,39,30.18,30.08,7,1,14,0.00
2013-5-28,67,55,44,48,41,34,79,61,37,30.21,30.08,2,1,7,0.00
2013-5-29,65,58,53,63,56,44,97,92,63,30.08,29.93,2,0,4,0.70
2013-5-30,80,68,59,66,62,58,98,82,56,30.07,29.98,4,0,7,0.01
2013-5-31,85,73,62,68,62,59,90,70,49,30.05,29.86,3,1,8,0.00
2013-6-1,83,73,64,69,65,61,91,76,54,29.90,29.76,5,0,10,0.02
2013-6-2,79,67,59,69,64,57,96,91,67,29.77,29.62,5,0,8,0.97
2013-6-3,64,58,48,58,52,41,96,82,63,29.84,29.73,4,1,8,0.00
2013-6-4,58,50,44,45,42,39,85,74,59,30.10,29.83,7,1,12,0.00
2013-6-5,64,53,43,46,41,24,93,64,23,30.20,30.10,3,0,7,0.00
2013-6-6,65,56,50,55,47,38,94,74,52,30.16,30.03,2,0,4,0.03
2013-6-7,53,51,47,51,49,45,96,94,89,30.03,29.84,3,0,8,0.56
2013-6-8,56,53,50,55,52,48,97,96,93,30.01,29.74,4,0,6,0.25
2013-6-9,69,58,53,59,54,50,97,86,57,30.18,30.01,4,0,5,0.08
2013-6-10,69,60,53,58,53,49,96,79,48,30.19,29.92,2,0,5,0.33
2013-6-11,58,54,52,56,52,51,97,95,90,29.90,29.55,9,1,14,1.25
2013-6-12,60,54,50,53,51,48,97,90,73,29.84,29.58,7,2,13,0.42
2013-6-13,62,56,49,56,51,48,94,85,66,29.82,29.68,1,0,3,0.00
2013-6-14,68,59,51,57,51,45,95,76,56,29.84,29.68,9,1,12,0.00
2013-6-15,68,57,46,49,44,41,89,64,45,29.95,29.84,5,1,12,0.00
2013-6-16,68,57,52,56,52,45,97,82,64,29.92,29.67,2,0,7,0.22
2013-6-17,70,59,53,62,56,51,97,91,67,29.91,29.75,4,0,11,0.03
2013-6-18,63,54,47,52,48,43,96,82,54,29.97,29.88,5,0,6,0.00
2013-6-19,62,53,42,48,43,38,91,71,50,30.17,29.97,7,1,12,0.00
2013-6-20,71,58,46,52,46,41,86,67,41,30.25,30.17,3,0,6,0.00
2013-6-21,75,63,52,57,52,46,87,68,44,30.24,30.18,3,0,6,0.00
2013-6-22,76,66,61,66,60,53,97,84,68,30.19,30.05,2,0,4,0.22
2013-6-23,80,69,63,72,66,62,97,90,74,30.07,29.91,5,0,6,0.08
2013-6-24,82,71,62,72,67,61,96,86,66,29.95,29.85,2,0,6,0.73
2013-6-25,82,68,62,72,66,61,97,91,70,29.89,29.71,4,0,11,1.01
2013-6-26,73,66,63,68,64,62,98,94,81,29.77,29.71,2,0,4,0.30
2013-6-27,80,70,63,70,65,63,97,86,61,29.77,29.66,3,0,6,0.00
2013-6-28,74,64,60,67,62,58,97,93,78,29.66,29.35,8,1,15,1.03
2013-6-29,73,65,61,66,62,60,98,92,74,29.64,29.45,3,0,6,0.67
2013-6-30,77,68,61,67,63,60,98,87,65,29.89,29.64,2,0,5,0.86
2013-7-1,68,65,61,66,63,60,98,95,89,30.02,29.88,3,0,8,0.34
2013-7-2,77,67,59,72,65,58,98,94,83,30.09,30.00,3,0,6,0.21
2013-7-3,80,70,67,73,68,66,98,93,74,30.12,30.07,4,0,10,0.08
2013-7-4,81,72,68,75,70,67,98,93,76,30.14,30.04,4,0,7,0.24
2013-7-5,81,72,65,75,69,64,97,91,75,30.11,30.00,3,0,5,0.00
2013-7-6,78,70,64,70,67,62,97,88,64,30.03,29.96,4,0,7,0.00
2013-7-7,80,70,62,70,65,58,96,86,60,30.00,29.89,1,0,4,0.00
2013-7-8,73,68,66,69,67,65,97,95,85,30.00,29.88,2,0,4,0.14
2013-7-9,80,70,64,72,67,63,98,89,73,30.04,29.94,2,0,5,0.00
2013-7-10,73,70,66,71,68,63,96,92,87,29.94,29.69,2,0,5,0.12
2013-7-11,73,68,58,69,63,56,97,85,62,29.97,29.69,6,1,9,0.02
2013-7-12,73,64,56,63,58,53,94,81,61,30.17,29.98,3,0,8,0.00
2013-7-13,77,68,60,67,62,55,94,82,54,30.26,30.18,2,0,4,0.00
2013-7-14,81,72,67,72,68,65,96,86,63,30.28,30.18,3,0,5,0.00
2013-7-15,83,74,67,72,66,61,97,79,51,30.20,30.11,6,1,8,0.00
2013-7-16,81,73,65,69,65,63,93,78,58,30.18,30.13,5,0,9,0.00
2013-7-17,85,75,67,74,69,63,96,82,61,30.16,29.93,3,0,5,0.11
2013-7-18,84,72,66,74,69,65,97,90,69,29.99,29.88,2,0,7,0.41
2013-7-19,84,74,68,76,70,66,97,88,70,29.89,29.62,4,0,12,0.02
2013-7-20,76,70,63,70,64,57,93,83,56,29.78,29.60,4,1,9,0.00
2013-7-21,70,63,56,59,56,53,95,81,61,29.99,29.78,3,0,6,0.00
2013-7-22,76,65,55,67,60,52,96,84,70,30.00,29.82,1,0,3,0.00
2013-7-23,72,66,63,68,64,62,97,95,78,29.82,29.52,2,0,4,0.97
2013-7-24,64,58,48,63,55,45,98,90,79,30.01,29.54,4,1,10,0.41
2013-7-25,64,54,44,55,48,42,95,83,63,30.13,30.02,4,0,8,0.00
2013-7-26,65,60,54,60,56,51,95,86,74,30.11,30.00,2,0,6,0.00
2013-7-27,75,63,52,63,57,51,96,81,60,30.04,29.94,2,0,5,0.00
2013-7-28,72,67,62,67,62,58,96,85,77,29.95,29.87,3,0,4,1.35
2013-7-29,73,65,58,64,61,54,97,86,58,30.04,29.90,3,0,8,0.30
2013-7-30,70,61,54,60,55,52,94,82,66,30.10,30.03,3,0,8,0.00
2013-7-31,73,63,55,63,57,53,96,82,53,30.11,30.00,2,0,6,0.00
2013-8-1,72,63,59,63,60,56,96,87,71,30.00,29.79,4,1,9,0.50
2013-8-2,72,64,58,62,59,54,97,83,59,29.80,29.75,3,0,6,0.00
2013-8-3,68,60,56,60,56,54,96,86,65,29.82,29.73,6,0,7,0.18
2013-8-4,63,57,52,58,54,51,96,89,70,29.92,29.79,6,1,11,0.55
2013-8-5,63,55,46,52,46,36,94,75,41,30.05,29.91,9,2,13,0.00
2013-8-6,70,59,50,57,51,47,89,76,52,30.11,30.04,3,0,6,0.00
2013-8-7,73,65,56,63,57,51,88,77,61,30.12,29.98,3,0,8,0.00
2013-8-8,77,68,63,69,64,60,97,89,75,29.98,29.92,3,0,8,0.26
2013-8-9,71,68,65,69,67,64,97,95,90,29.93,29.73,2,0,5,0.41
2013-8-10,67,62,54,66,54,48,97,77,55,30.00,29.76,6,1,16,0.00
2013-8-11,71,60,50,59,53,48,94,78,58,30.07,29.97,4,0,7,0.00
2013-8-12,71,61,52,61,56,50,92,82,58,30.00,29.88,5,0,5,0.00
2013-8-13,67,62,59,63,59,56,96,91,83,29.88,29.65,2,0,4,0.13
2013-8-14,59,54,49,58,52,48,96,91,81,29.96,29.65,6,1,10,0.18
2013-8-15,66,55,46,55,50,45,96,83,61,30.10,29.97,4,0,6,0.00
2013-8-16,70,59,50,59,53,47,92,81,55,30.20,30.08,3,0,7,0.00
2013-8-17,69,60,52,59,54,51,96,82,59,30.28,30.20,5,0,8,0.00
2013-8-18,72,63,56,61,57,54,94,82,58,30.26,30.07,1,0,4,0.00
2013-8-19,74,64,55,64,58,54,95,81,60,30.07,29.95,4,0,7,0.00
2013-8-20,76,66,58,64,60,56,94,81,55,30.07,29.98,3,0,5,0.00
2013-8-21,80,68,59,67,62,57,92,82,57,30.12,29.97,2,0,4,0.00
2013-8-22,79,68,61,68,63,59,96,85,64,29.99,29.78,3,0,9,0.67
2013-8-23,63,58,50,61,54,48,95,85,64,30.17,29.84,10,1,11,0.00
2013-8-24,69,57,47,58,50,45,93,78,53,30.35,30.18,2,0,6,0.00
2013-8-25,71,61,51,60,53,48,93,77,49,30.36,30.13,2,0,4,0.00
2013-8-26,68,63,58,65,61,57,96,94,88,30.13,29.87,1,0,3,0.49
2013-8-27,76,68,64,69,65,63,97,91,76,29.89,29.84,3,0,6,0.01
2013-8-28,78,69,63,72,66,62,97,90,75,29.92,29.83,3,0,6,0.01
2013-8-29,74,66,60,66,62,59,95,89,71,30.02,29.91,2,0,5,0.00
2013-8-30,78,68,60,69,64,59,97,88,65,29.97,29.74,1,0,4,0.00
2013-8-31,70,67,64,68,65,62,97,95,88,29.77,29.72,1,0,3,0.19
2013-9-1,77,68,63,69,65,62,97,91,74,29.84,29.76,2,0,4,0.01
2013-9-2,75,68,60,69,65,58,96,91,76,29.79,29.63,2,0,14,0.19
2013-9-3,69,61,57,62,58,56,96,91,73,29.79,29.67,4,0,5,0.09
2013-9-4,68,59,53,60,56,52,97,90,68,29.90,29.79,3,0,8,0.16
2013-9-5,56,51,44,55,44,38,96,77,56,30.16,29.86,6,1,11,0.08
2013-9-6,60,49,39,48,42,37,94,77,49,30.26,30.07,2,0,7,0.00
2013-9-7,63,55,50,55,50,46,92,82,63,30.08,29.84,1,0,3,0.00
2013-9-8,55,50,43,52,44,39,95,80,59,30.09,29.76,8,2,16,0.19
2013-9-9,62,50,40,50,44,38,94,79,55,30.20,30.07,3,0,6,0.00
2013-9-10,69,61,53,68,59,50,96,93,87,30.09,29.98,2,0,6,1.22
2013-9-11,84,72,66,75,69,64,97,90,72,30.02,29.86,4,1,12,0.08
2013-9-12,75,66,63,69,64,62,97,93,80,29.89,29.59,2,0,4,1.04
2013-9-13,63,54,48,62,53,47,97,96,95,29.83,29.58,7,2,9,0.77
2013-9-14,54,48,43,49,46,42,97,93,81,30.08,29.82,4,1,8,0.41
2013-9-15,63,50,41,54,47,40,97,90,68,30.16,30.02,2,0,4,0.00
2013-9-16,51,45,37,50,42,34,96,90,72,30.32,30.00,5,1,10,0.56
2013-9-17,55,44,35,46,39,33,95,84,62,30.49,30.32,4,0,9,0.00
2013-9-18,64,52,43,52,46,40,94,82,55,30.34,30.14,3,0,5,0.00
2013-9-19,71,56,47,56,50,45,94,80,49,30.15,30.03,3,0,5,0.00
2013-9-20,75,62,52,60,54,50,91,78,48,30.07,29.89,2,1,4,0.00
2013-9-21,69,62,57,58,55,47,93,77,45,29.90,29.54,6,1,12,0.03
2013-9-22,60,51,43,58,48,40,96,91,81,29.86,29.52,5,1,10,0.64
2013-9-23,43,41,38,40,38,35,93,89,84,30.07,29.86,6,1,13,0.00
2013-9-24,54,46,40,44,40,37,92,81,63,30.06,29.93,7,1,11,0.00
2013-9-25,58,49,42,50,45,40,95,85,70,30.00,29.93,5,1,8,0.00
2013-9-26,56,48,40,49,44,39,96,86,72,30.17,30.01,4,0,8,0.00
2013-9-27,59,51,48,52,48,46,95,88,70,30.30,30.17,4,0,8,0.00
2013-9-28,67,55,48,57,51,47,95,87,66,30.36,30.24,5,1,6,0.00
2013-9-29,69,57,50,57,52,48,94,83,62,30.24,30.05,1,1,5,0.00
2013-9-30,68,56,48,56,51,47,94,84,64,30.07,29.96,4,1,6,0.00
2013-10-1,69,58,49,58,52,47,93,82,60,29.99,29.87,4,0,7,0.00
2013-10-2,71,60,52,61,54,49,95,82,63,29.96,29.82,3,0,9,0.00
2013-10-3,66,56,48,52,47,43,85,73,50,30.08,29.96,3,0,6,0.00
2013-10-4,64,55,50,56,50,46,95,84,58,30.09,30.03,5,0,5,0.00
2013-10-5,58,54,50,53,50,46,94,87,78,30.12,30.05,3,0,7,0.00
2013-10-6,59,54,51,56,49,40,94,82,67,30.12,29.99,4,0,9,0.27
2013-10-7,71,60,49,62,56,46,95,85,66,29.99,29.55,10,2,17,0.74
2013-10-8,53,47,43,46,38,35,89,74,52,30.37,29.85,6,1,15,0.00
2013-10-9,60,48,40,42,38,35,84,69,46,30.46,30.34,5,1,6,0.00
2013-10-10,62,53,45,46,38,31,71,58,37,30.34,30.17,4,1,5,0.00
2013-10-11,68,58,50,47,41,33,75,54,37,30.17,30.11,4,1,5,0.00
2013-10-12,69,58,48,51,47,39,88,67,46,30.30,30.15,4,0,6,0.00
2013-10-13,66,53,43,50,46,42,95,77,49,30.39,30.29,4,1,7,0.00
2013-10-14,53,52,49,51,49,46,96,90,79,30.31,30.22,2,0,6,0.16
2013-10-15,60,53,48,55,51,47,96,90,78,30.27,30.09,3,0,6,0.00
2013-10-16,62,57,53,53,49,46,89,76,57,30.09,29.79,4,1,11,0.01
2013-10-17,61,54,49,52,49,44,95,83,62,29.81,29.65,4,1,14,0.22
2013-10-18,56,49,44,50,45,36,96,85,71,29.88,29.57,4,1,13,0.58
2013-10-19,56,48,40,45,41,37,92,77,61,29.91,29.64,5,1,12,0.06
2013-10-20,50,45,38,45,38,33,91,78,53,29.98,29.62,6,1,13,0.02
2013-10-21,57,47,36,41,38,33,93,73,55,30.06,29.88,4,1,10,0.00
2013-10-22,52,45,36,44,38,27,91,75,58,29.87,29.67,5,1,14,0.06
2013-10-23,45,38,33,33,31,29,90,75,57,29.75,29.62,4,0,9,0.00
2013-10-24,38,33,29,33,29,23,94,85,74,29.88,29.66,6,1,10,0.02
2013-10-25,38,33,31,30,28,25,89,80,64,30.13,29.89,8,1,12,0.01
2013-10-26,41,35,29,32,30,25,93,82,63,30.12,29.82,12,1,16,0.03
2013-10-27,41,38,32,35,30,27,85,76,64,30.02,29.75,5,1,13,0.00
2013-10-28,39,34,27,35,28,19,93,78,59,30.38,30.01,8,2,18,0.06
2013-10-29,37,29,22,25,21,16,88,74,44,30.48,30.36,4,1,7,0.00
2013-10-30,39,34,29,33,28,18,92,79,57,30.35,30.21,4,0,4,0.03
2013-10-31,56,46,34,54,44,32,95,91,80,30.25,29.62,10,2,16,0.30
2013-11-1,60,56,48,58,50,41,94,83,57,29.60,29.27,12,4,22,0.32
2013-11-2,48,43,32,42,39,30,95,87,77,29.82,29.57,7,1,13,0.05
2013-11-3,30,26,22,20,16,14,85,67,56,30.50,30.14,9,3,15,0.00
2013-11-4,33,25,20,18,15,12,80,67,51,30.71,30.50,4,1,9,0.00
2013-11-5,44,36,28,34,24,13,77,62,47,30.69,30.45,6,2,13,0.00
2013-11-6,53,46,39,44,39,34,81,77,66,30.44,29.88,5,2,14,0.00
2013-11-7,52,42,28,49,38,23,95,88,76,29.87,29.71,9,2,15,0.63
2013-11-8,33,30,28,27,23,20,84,77,69,30.11,29.81,7,2,16,0.00
2013-11-9,35,31,25,30,23,20,93,74,60,30.20,29.93,8,1,19,0.00
2013-11-10,38,34,32,35,32,29,95,91,86,29.92,29.70,8,1,16,0.02
2013-11-11,36,32,28,31,28,25,92,83,75,30.09,29.84,7,2,16,0.05
2013-11-12,28,21,18,26,16,13,93,83,76,30.26,29.91,8,3,15,0.00
2013-11-13,26,20,13,20,13,9,85,76,59,30.34,30.08,10,2,14,0.00
2013-11-14,36,32,24,29,24,19,80,73,55,30.08,30.05,5,2,10,0.04
2013-11-15,46,39,34,25,21,17,56,48,38,30.18,30.08,4,1,8,0.01
2013-11-16,50,43,38,31,26,22,64,52,39,30.28,30.16,3,1,6,0.00
2013-11-17,56,50,41,50,43,30,88,77,60,30.25,29.65,11,2,14,0.03
2013-11-18,58,47,35,55,40,29,91,78,61,29.65,29.35,11,4,21,0.28
2013-11-19,34,26,22,29,18,15,84,74,65,30.37,29.60,12,5,26,0.00
2013-11-20,30,23,19,18,16,14,86,77,61,30.66,30.37,9,1,12,0.00
2013-11-21,38,32,23,27,13,-5,75,48,20,30.65,30.36,4,1,7,0.00
2013-11-22,39,36,33,38,34,27,96,91,74,30.36,29.82,4,0,8,0.17
2013-11-23,38,25,14,37,20,10,94,82,66,29.95,29.75,15,3,18,0.02
2013-11-24,14,11,7,10,3,-6,88,72,57,30.27,29.83,15,5,23,0.00
2013-11-25,24,14,2,14,4,-6,79,65,40,30.41,30.22,4,1,11,0.00
2013-11-26,36,27,24,34,23,13,94,82,60,30.28,29.97,5,1,7,0.00
2013-11-27,41,33,24,39,31,23,96,94,90,29.96,29.39,13,3,17,0.81
2013-11-28,24,14,9,23,10,6,94,83,65,30.43,29.50,11,2,16,0.00
2013-11-29,18,12,7,10,7,4,89,81,67,30.79,30.44,5,0,7,0.00
2013-11-30,24,16,7,16,8,4,88,74,57,30.80,30.37,9,1,13,0.00
2013-12-1,34,29,24,30,26,17,94,87,74,30.36,30.03,6,1,10,0.00
2013-12-2,38,33,28,33,30,27,94,90,83,30.03,29.89,2,0,4,0.00
2013-12-3,38,32,28,33,29,23,93,86,76,29.99,29.89,6,1,8,0.00
2013-12-4,33,28,24,30,24,20,90,84,75,30.17,29.98,4,0,7,0.00
2013-12-5,51,46,34,49,44,32,94,90,84,30.16,29.82,9,2,14,0.00
2013-12-6,48,34,28,47,31,23,95,89,79,30.12,29.85,6,1,11,0.55
2013-12-7,28,23,19,23,16,13,85,75,62,30.46,30.10,11,3,15,0.00
2013-12-8,21,19,16,13,11,9,80,72,63,30.59,30.45,6,1,12,0.00
2013-12-9,33,28,20,31,23,12,94,83,70,30.45,29.87,7,2,15,0.00
2013-12-10,30,23,16,27,17,6,88,78,61,29.92,29.77,6,2,10,0.00
2013-12-11,21,16,10,16,11,6,91,82,69,30.17,29.93,5,1,11,0.00
2013-12-12,11,7,-1,7,1,-4,88,78,60,30.30,29.98,5,1,12,0.00
2013-12-13,11,6,-6,8,2,-10,89,83,71,30.43,29.93,7,1,16,0.00
2013-12-14,13,1,-8,10,-4,-12,89,79,65,30.64,30.15,4,0,8,0.00
2013-12-15,21,17,14,19,15,10,92,90,85,30.14,29.57,9,2,22,0.00
2013-12-16,15,6,-5,13,1,-10,91,81,66,30.23,29.70,5,1,11,0.00
2013-12-17,19,8,-6,16,4,-10,89,83,64,30.26,30.04,2,0,7,0.00
2013-12-18,23,19,13,19,16,11,92,89,82,30.03,29.93,3,0,5,0.00
2013-12-19,31,26,21,28,22,19,93,86,76,30.09,29.93,4,1,9,0.00
2013-12-20,37,34,30,35,32,28,96,90,82,30.09,29.88,3,0,10,0.01
2013-12-21,47,39,26,45,38,25,96,95,92,29.90,29.80,6,1,11,0.37
2013-12-22,46,33,23,45,32,21,97,95,93,29.96,29.70,3,1,7,0.02
2013-12-23,44,35,23,44,34,21,97,96,91,30.12,29.95,3,1,7,0.10
2013-12-24,23,13,1,20,10,-2,92,89,79,30.31,30.11,5,1,15,0.00
2013-12-25,15,4,-4,8,0,-7,89,85,71,30.56,30.31,11,1,14,0.00
2013-12-26,22,20,15,20,16,6,93,86,65,30.44,30.12,7,1,12,0.00
2013-12-27,23,21,19,20,18,16,93,90,83,30.23,30.16,3,1,8,0.00
2013-12-28,33,29,20,30,26,17,92,88,83,30.15,30.00,7,2,9,0.00
2013-12-29,39,34,29,32,30,27,95,86,67,30.00,29.57,4,1,9,0.38
2013-12-30,33,16,-1,32,12,-6,96,85,72,30.17,29.57,13,3,18,0.01
2013-12-31,11,6,0,9,1,-8,89,80,69,30.18,30.03,4,0,6,0.00
2014-1-1,11,5,-6,7,0,-12,90,79,67,30.43,30.16,6,1,8,0.00
2014-1-2,-3,-8,-14,-8,-13,-18,84,80,72,30.42,30.04,3,0,6,0.00